Location: Yamada Observatory
(36.7980°N, 119.2990°W)
Time: 12:51:52
(UTC-08:00)

Tiangong 2 - Visible Passes

Search period start: 20 January 2018 00:00
Search period end: 30 January 2018 00:00
Orbit: 384 x 390 km, 42.8° (Epoch: 20 January)

Date Brightness Start Highest point End Pass type
(mag) Time Alt. Az. Time Alt. Az. Time Alt. Az.
20 Jan 3.5 04:57:13 22° ENE 04:57:13 22° ENE 04:58:30 10° ENE visible
20 Jan 2.2 06:29:30 10° WNW 06:32:18 30° N 06:35:12 10° NE visible
21 Jan 1.9 05:33:42 38° N 05:33:42 38° N 05:36:30 10° ENE visible
22 Jan 2.5 06:10:06 17° NW 06:11:50 27° N 06:14:37 10° ENE visible
23 Jan 3.1 05:14:09 23° NNE 05:14:09 23° NNE 05:15:50 10° NE visible
24 Jan 2.5 05:50:26 23° NNW 05:51:21 26° N 05:54:08 10° ENE visible
25 Jan 3.9 04:54:24 15° NE 04:54:24 15° NE 04:55:13 10° ENE visible
25 Jan 2.1 06:26:42 10° NW 06:29:42 37° NNE 06:32:43 10° E visible
26 Jan 2.4 05:30:38 29° N 05:30:50 29° N 05:33:41 10° ENE visible
27 Jan 4.6 04:34:37 10° ENE 04:34:37 10° ENE 04:34:41 10° ENE visible
27 Jan 1.5 06:06:53 18° NW 06:09:05 56° NNE 06:12:13 10° E visible
28 Jan 2.5 05:10:53 33° NE 05:10:53 33° NE 05:13:15 10° E visible
29 Jan 1.0 05:47:11 36° WNW 05:48:22 84° SSW 05:51:33 10° ESE visible
